Regional Weather Roundup
Issued by NWS Cleveland, OH

Home | Current Version | Previous Version | Text Only | Print | Product List | Glossary Off
Versions: 1 2 3 4 5 6 7 8 9 10 11 12 13 14 15 16 17 18 19 20 21 22 23 24 25 26 27 28 29 30 31 32 33 34 35 36 37 38 39 40 41 42 43 44 45 46 47 48 49 50

964
ASUS41 KCLE 220012
RWRCLE
OHIO REGIONAL WEATHER ROUNDUP
NATIONAL WEATHER SERVICE WILMINGTON, OH
700 PM EST SUN JAN 21 2018

NOTE: "FAIR" INDICATES FEW OR NO CLOUDS BELOW 12,000 FEET WITH NO
SIGNIFICANT WEATHER AND/OR OBSTRUCTIONS TO VISIBILITY.

OHZ001>008-015>018-024>027-034-035-043-044-220100-
   NORTHWEST OHIO

CITY           SKY/WX    TMP DP  RH WIND       PRES   REMARKS
DEFIANCE       FOG       43  42  97 CALM      30.01R VSB 1/4
FINDLAY        CLOUDY    45  42  89 S8        30.01S
TOLEDO EXPRESS FOG       43  43 100 S5        30.01S VSB 1/4
TOLEDO EXEC    FOG       42  41  96 S5        30.03R VSB 1/4
LIMA           CLOUDY    48  46  93 S9        30.01S
$$

OHZ009>014-019>023-028>033-038-089-220100-
   NORTHEAST OHIO

CITY           SKY/WX    TMP DP  RH WIND       PRES   REMARKS
CLE-HOPKINS    LGT RAIN  46  43  89 S6        30.07R
CLE-LAKEFRONT  CLOUDY    46  43  89 S9        30.04R FOG
CUY CO. ARPT   CLOUDY    46  32  57 SW5       30.05R FOG
LORAIN-ELYRIA  LGT RAIN  43  39  86 SW8       30.04S FOG
ASHTABULA      CLOUDY    41  41 100 S5        30.05S
AKRON-CANTON   FOG       43  40  89 SW6       30.06R VSB 1/2
WOOSTER        LGT RAIN  43  42  97 S6        30.06R FOG
MANSFIELD      CLOUDY    46  45  96 S8        30.04S
YOUNGSTOWN     CLOUDY    45  41  86 S8        30.06R
$$

OHZ042-051>053-060>062-070>072-077>081-220100-
  SOUTHWEST OHIO

CITY           SKY/WX    TMP DP  RH WIND       PRES   REMARKS
CINC-COVINGTON CLOUDY    53  51  93 S8        30.04S
CINC-LUNKEN    CLOUDY    54  50  86 S8        30.06R
HAMILTON       CLOUDY    54  50  86 S5        30.05S
DAYTON         CLOUDY    51  49  92 S7        30.05R
WRIGHT-PAT AFB CLOUDY    51  46  82 S3        30.04R
DAYTON GENERAL CLOUDY    52  48  86 S6        30.04R
WILMINGTON     CLOUDY    49  49 100 S8        30.05R
$$

OHZ036-037-039>041-045>050-054>059-063>069-073>076-082>088-220100-
  CENTRAL AND SOUTHEAST OHIO

CITY           SKY/WX    TMP DP  RH WIND       PRES   REMARKS
COLUMBUS       CLOUDY    50  48  93 S7        30.06R
OSU AIRPORT    CLOUDY    49  47  93 S7        30.05R
BOLTON FIELD   CLOUDY    48  46  93 S6        30.06S
RICKENBACK AFB CLOUDY    49  48  99 S7        30.06S
NEWARK         CLOUDY    41  39  93 S3        30.06S
MARION         CLOUDY    45  42  89 S8        30.04S
LANCASTER      CLOUDY    50  48  93 S6        30.07S
ZANESVILLE     CLOUDY    49  43  80 S5        30.08R
NEW PHILLY     CLOUDY    41  39  93 CALM      30.08R
$$




USA.gov is the U.S. government's official web portal to all federal, state and local government web resources and services.